Regional Weather Roundup
Issued by NWS

Home | Current Version | Previous Version | Text Only | Print | Product List | Glossary On
Versions: 1 2 3 4 5 6 7 8 9 10 11 12 13 14 15 16 17 18 19 20 21 22 23 24 25 26 27 28 29 30 31 32 33 34 35 36 37 38 39 40 41 42 43 44 45 46 47 48 49 50
000
ASUS43 KTOP 291908
RWRKS

WEATHER ROUNDUP FOR KANSAS
NATIONAL WEATHER SERVICE GOODLAND KS
200 PM CDT TUE JUL 29 2014

NOTE:  "FAIR" INDICATES FEW OR NO CLOUDS BELOW 12,000 FEET WITH NO
SIGNIFICANT WEATHER AND/OR OBSTRUCTIONS TO VISIBILITY.

KSZ001>006-013>018-027>032-041>047-292000-
NORTHWEST KANSAS

CITY           SKY/WX    TMP DP  RH WIND       PRES   REMARKS
GOODLAND       PTSUNNY   84  61  45 SE15G22   30.17F
HAYS           SUNNY     84  57  39 SW10      30.16F
HILL CITY      MOSUNNY   85  59  41 VRB3      30.15F
RUSSELL        MOSUNNY   85  59  41 SE7       30.14F
$$

KSZ061>065-074>080-084>089-292000-
SOUTHWEST KANSAS

CITY           SKY/WX    TMP DP  RH WIND       PRES   REMARKS
DODGE CITY     PTSUNNY   82  61  48 SW14      30.18F
ELKHART          N/A     75  63  66 S14         N/A
GARDEN CITY    PTSUNNY   79  62  56 S15       30.17F
GREAT BEND     SUNNY     84  59  42 SE6       30.14F
LIBERAL        CLOUDY    66  61  82 S8        30.22R
PRATT          SUNNY     86  57  37 S8G16     30.17F
$$

KSZ066>073-081>083-090>101-292000-
SOUTHEAST KANSAS

CITY           SKY/WX    TMP DP  RH WIND       PRES   REMARKS
CHANUTE        CLOUDY    73  60  63 N7        30.19S
COFFEYVILLE    PTSUNNY   81  61  50 NW5       30.16F
HUTCHINSON     SUNNY     87  60  40 VRB6      30.15F
MEDICINE LODGE   N/A     88  60  38 SW5       30.14F
NEWTON         CLOUDY    82  57  42 SE8       30.20F
PARSONS        CLOUDY    79  59  50 N3        30.18F
WICHITA INTL   MOSUNNY   88  60  38 VRB3      30.14F
WICHITA JABRA  SUNNY     87  61  41 N6        30.15F
WICHITA MCCONL SUNNY     86  58  39 VRB3      30.16F
WINFIELD       MOSUNNY   89  60  37 VRB5      30.15F
$$

KSZ007>012-019>026-033>040-048>060-102>105-292000-
NORTHEAST KANSAS

CITY           SKY/WX    TMP DP  RH WIND       PRES   REMARKS
CONCORDIA      MOSUNNY   76  59  55 E7        30.18F
EMPORIA        PTSUNNY   72  60  66 NE5       30.19F
LAWRENCE       PTSUNNY   82  59  45 N9        30.16F
MANHATTAN      PTSUNNY   74  59  59 CALM      30.19F
MARYSVILLE     PTSUNNY   77  55  47 W3        30.18F
OLATHE IND     MOSUNNY   80  54  40 MISG      30.17F
OLATHE EXE     PTSUNNY   80  55  42 NW8       30.16F
SALINA         MOSUNNY   82  56  40 E12       30.16F
TOPEKA BILLARD PTSUNNY   81  57  43 VRB6      30.17F
TOPEKA FORBES  PTSUNNY   82  54  37 NW5       30.17F
$$



USA.gov is the U.S. government's official web portal to all federal, state and local government web resources and services.